EW9415 Weather Reports


Display with metric or nautical units.
time (UTC)temp
F
wind
direction
speed
MPH
gust
MPH
rain 1hr
in
rain 24hr
in
rain mn
in
humidity
%
barometer
mb
20190720094420 79 256 0.0 0.0 0.00 0.00 0.00 81 1011.1
20190720093921 79 291 0.0 0.0 0.00 0.00 0.00 81 1011.2
20190720093419 79 255 0.0 0.0 0.00 0.00 0.00 81 1011.3
20190720092918 79 226 0.0 0.0 0.00 0.00 0.00 81 1011.1
20190720092419 79 283 0.0 0.0 0.00 0.00 0.00 81 1011.0
20190720091918 79 245 0.0 0.0 0.00 0.00 0.00 81 1010.9
20190720091417 79 245 0.0 0.0 0.00 0.00 0.00 81 1010.8
20190720090915 79 227 0.0 0.0 0.00 0.00 0.00 80 1010.7
20190720090415 79 236 0.0 0.0 0.00 0.00 0.00 80 1010.7
20190720085914 79 236 0.0 0.0 0.00 0.00 0.00 80 1010.6
20190720085414 79 236 0.0 0.0 0.00 0.00 0.00 80 1010.6
20190720084916 79 236 0.0 0.0 0.00 0.00 0.00 80 1010.5
20190720084414 79 245 0.0 0.0 0.00 0.00 0.00 80 1010.5
20190720083915 79 248 0.0 0.0 0.00 0.00 0.00 80 1010.5
20190720083415 79 236 0.0 0.0 0.00 0.00 0.00 80 1010.4
20190720082912 80 236 0.0 0.0 0.00 0.00 0.00 80 1010.3
20190720082412 80 236 0.0 0.0 0.00 0.00 0.00 80 1010.2
20190720081912 80 236 0.0 0.0 0.00 0.00 0.00 80 1010.1
20190720081411 80 236 0.0 0.0 0.00 0.00 0.00 80 1010.1
20190720080914 80 236 0.0 0.0 0.00 0.00 0.00 80 1010.1
20190720080406 80 242 0.0 0.0 0.00 0.00 0.00 80 1010.1
20190720075906 80 242 0.0 0.0 0.00 0.00 0.00 80 1010.1
20190720075406 80 242 0.0 0.0 0.00 0.00 0.00 80 1010.1
20190720074910 80 242 0.0 0.0 0.00 0.00 0.00 80 1010.1
20190720074408 80 246 0.0 0.0 0.00 0.00 0.00 80 1010.2
20190720073906 80 246 0.0 0.0 0.00 0.00 0.00 80 1010.2
20190720073406 80 246 0.0 0.0 0.00 0.00 0.00 80 1010.2
20190720072906 80 251 0.0 0.0 0.00 0.00 0.00 80 1010.2
20190720072407 80 251 0.0 0.0 0.00 0.00 0.00 80 1010.1
20190720071907 80 228 0.0 0.0 0.00 0.00 0.00 80 1010.1
20190720071404 80 228 0.0 0.0 0.00 0.00 0.00 80 1010.0
20190720070914 80 227 0.0 0.0 0.00 0.00 0.00 80 1010.0
20190720070405 80 227 0.0 0.0 0.00 0.00 0.00 80 1010.0
20190720065904 81 227 0.0 0.0 0.00 0.00 0.00 80 1010.1
20190720065405 81 227 0.0 0.0 0.00 0.00 0.00 79 1010.2
20190720064904 81 227 0.0 0.0 0.00 0.00 0.00 79 1010.2
20190720064404 81 227 0.0 0.0 0.00 0.00 0.00 78 1010.2
20190720063901 81 227 0.0 0.0 0.00 0.00 0.00 78 1010.2
20190720063402 81 227 0.0 0.0 0.00 0.00 0.00 78 1010.2
20190720062902 81 227 0.0 0.0 0.00 0.00 0.00 78 1010.3
20190720062404 81 227 0.0 0.0 0.00 0.00 0.00 78 1010.3
20190720061902 82 227 0.0 0.0 0.00 0.00 0.00 78 1010.3
20190720061403 82 227 0.0 0.0 0.00 0.00 0.00 77 1010.2
20190720060903 82 227 0.0 0.0 0.00 0.00 0.00 77 1010.1
20190720060403 82 227 0.0 0.0 0.00 0.00 0.00 77 1010.3
20190720055903 82 227 0.0 0.0 0.00 0.00 0.00 77 1010.1
20190720055401 82 227 0.0 0.0 0.00 0.00 0.00 77 1010.1
20190720054855 82 227 0.0 0.0 0.00 0.00 0.00 77 1010.0
20190720054356 82 227 0.0 0.0 0.00 0.00 0.00 77 1010.0
20190720053855 82 251 0.0 0.0 0.00 0.00 0.00 77 1010.0
20190720053353 82 251 0.0 0.0 0.00 0.00 0.00 77 1010.1
20190720052852 82 251 0.0 0.0 0.00 0.00 0.00 77 1010.0
20190720052351 82 251 0.0 0.0 0.00 0.00 0.00 77 1009.9
20190720051853 82 251 0.0 0.0 0.00 0.00 0.00 77 1009.9
20190720051352 83 251 0.0 0.0 0.00 0.00 0.00 77 1009.8
20190720050851 83 251 0.0 0.0 0.00 0.00 0.00 76 1009.9
20190720050350 83 251 0.0 0.0 0.00 0.00 0.00 76 1009.8
20190720045851 83 251 0.0 0.0 0.00 0.00 0.00 76 1009.8
20190720045350 83 252 0.0 0.0 0.00 0.00 0.00 75 1009.8
20190720044850 83 251 0.0 0.0 0.00 0.00 0.00 75 1009.7
20190720044348 83 248 0.0 0.0 0.00 0.00 0.00 75 1009.7
20190720043846 84 248 0.0 0.0 0.00 0.00 0.00 75 1009.7
20190720043347 84 247 0.0 0.0 0.00 0.00 0.00 74 1009.8
20190720042848 84 254 0.0 0.0 0.00 0.00 0.00 74 1009.9
20190720042348 84 278 0.0 0.0 0.00 0.00 0.00 74 1009.9
20190720041848 84 275 0.0 0.0 0.00 0.00 0.00 74 1009.9
20190720041346 84 258 0.0 0.0 0.00 0.00 0.00 74 1010.0
20190720040848 84 263 0.0 0.0 0.00 0.00 0.00 73 1010.0
20190720040348 84 266 0.0 0.0 0.00 0.00 0.00 73 1010.1
20190720035846 85 269 0.0 0.0 0.00 0.00 0.00 73 1010.0
20190720035347 85 263 0.0 0.0 0.00 0.00 0.00 73 1010.0
20190720034844 85 228 0.0 1.0 0.00 0.00 0.00 72 1010.1
20190720034344 85 241 0.0 1.0 0.00 0.00 0.00 72 1010.1
20190720033845 85 256 0.0 0.0 0.00 0.00 0.00 72 1010.2
20190720033344 85 257 0.0 0.0 0.00 0.00 0.00 71 1010.3
20190720032846 85 240 0.0 0.0 0.00 0.00 0.00 71 1010.3
20190720032346 85 254 0.0 0.0 0.00 0.00 0.00 71 1010.3
20190720031843 85 247 0.0 0.0 0.00 0.00 0.00 71 1010.5
20190720031343 85 266 0.0 0.0 0.00 0.00 0.00 71 1010.5
20190720030842 85 254 0.0 0.0 0.00 0.00 0.00 71 1010.5
20190720030343 86 245 0.0 0.0 0.00 0.00 0.00 71 1010.5
20190720025842 86 238 0.0 1.0 0.00 0.00 0.00 70 1010.6
20190720025343 86 238 0.0 1.0 0.00 0.00 0.00 70 1010.6
20190720024842 86 227 0.0 1.0 0.00 0.00 0.00 70 1010.7
20190720024342 86 227 0.0 1.0 0.00 0.00 0.00 70 1010.8
20190720023841 86 250 0.0 0.0 0.00 0.00 0.00 69 1010.7
20190720023340 86 250 0.0 1.0 0.00 0.00 0.00 69 1010.6
20190720022844 87 250 0.0 1.0 0.00 0.00 0.00 69 1010.7
20190720022341 87 257 0.0 0.0 0.00 0.00 0.00 68 1010.7
20190720021842 87 238 0.0 0.0 0.00 0.00 0.00 68 1010.7
20190720021342 87 238 0.0 0.0 0.00 0.00 0.00 68 1010.8
20190720020839 87 259 0.0 0.0 0.00 0.00 0.00 67 1010.8
20190720020337 87 259 0.0 0.0 0.00 0.00 0.00 67 1010.8
20190720015836 87 253 0.0 0.0 0.00 0.00 0.00 67 1010.6
20190720015333 88 253 0.0 4.0 0.00 0.00 0.00 66 1010.7
20190720014832 88 250 0.0 4.0 0.00 0.00 0.00 66 1010.7
20190720014331 88 251 0.0 0.0 0.00 0.00 0.00 66 1010.8
20190720013831 88 250 0.0 0.0 0.00 0.00 0.00 66 1010.8
20190720013329 88 248 0.0 0.0 0.00 0.00 0.00 66 1010.7
20190720012828 88 250 0.0 0.0 0.00 0.00 0.00 65 1010.6
20190720012329 88 242 0.0 1.0 0.00 0.00 0.00 65 1010.5
20190720011825 88 260 0.0 3.0 0.00 0.00 0.00 66 1010.4
20190720011324 88 257 0.0 3.0 0.00 0.00 0.00 66 1010.5
20190720010826 89 254 0.0 1.0 0.00 0.00 0.00 66 1010.5
20190720010322 89 261 0.0 4.0 0.00 0.00 0.00 66 1010.5
20190720005818 89 261 0.0 4.0 0.00 0.00 0.00 66 1010.4
20190720005318 89 249 0.0 1.0 0.00 0.00 0.00 66 1010.3
20190720004819 89 248 0.0 0.0 0.00 0.00 0.00 65 1010.3
20190720004319 89 247 0.0 0.0 0.00 0.00 0.00 64 1010.3
20190720003820 90 244 0.0 0.0 0.00 0.00 0.00 64 1010.2
20190720003317 90 244 0.0 0.0 0.00 0.00 0.00 63 1010.1
20190720002817 90 244 0.0 0.0 0.00 0.00 0.00 63 1010.1
20190720002316 90 244 0.0 0.0 0.00 0.00 0.00 62 1010.1
20190720001814 90 244 0.0 0.0 0.00 0.00 0.00 62 1010.0
20190720001315 91 244 0.0 0.0 0.00 0.00 0.00 61 1010.0
20190720000813 91 248 0.0 0.0 0.00 0.00 0.00 61 1009.9
20190720000315 91 238 0.0 0.0 0.00 0.00 0.00 60 1009.8
20190719235813 91 248 0.0 0.0 0.00 0.00 0.00 61 1009.7
20190719235312 91 226 0.0 0.0 0.00 0.00 0.00 60 1009.7
20190719234811 92 255 0.0 1.0 0.00 0.00 0.00 59 1009.7
20190719234308 92 242 0.0 0.0 0.00 0.00 0.00 59 1009.6
20190719233809 92 252 0.0 0.0 0.00 0.00 0.00 58 1009.4
20190719233309 92 259 0.0 0.0 0.00 0.00 0.00 58 1009.3
20190719232808 92 257 0.0 1.0 0.00 0.00 0.00 57 1009.3
20190719232308 92 259 0.0 3.0 0.00 0.00 0.00 57 1009.3
20190719231810 93 249 0.0 3.0 0.00 0.00 0.00 57 1009.3
20190719231306 93 272 0.0 0.0 0.00 0.00 0.00 57 1009.3
20190719230808 93 261 0.0 2.0 0.00 0.00 0.00 58 1009.4
20190719230304 93 238 0.0 4.0 0.00 0.00 0.00 57 1009.3
20190719225805 93 229 0.0 5.0 0.00 0.00 0.00 56 1009.4
20190719225305 93 233 0.0 5.0 0.00 0.00 0.00 57 1009.4
20190719224805 93 262 0.0 1.0 0.00 0.00 0.00 58 1009.4
20190719224303 93 263 0.0 4.0 0.00 0.00 0.00 56 1009.4
20190719223800 94 283 0.0 5.0 0.00 0.00 0.00 56 1009.3
20190719223300 94 260 0.0 5.0 0.00 0.00 0.00 56 1009.4
20190719222800 94 182 0.0 4.0 0.00 0.00 0.00 56 1009.4
20190719222301 94 262 0.0 3.0 0.00 0.00 0.00 56 1009.3
20190719221800 94 324 0.0 4.0 0.00 0.00 0.00 56 1009.4
20190719221258 94 270 0.0 4.0 0.00 0.00 0.00 55 1009.5
20190719220758 95 265 0.0 1.0 0.00 0.00 0.00 54 1009.4
20190719220300 95 250 0.0 1.0 0.00 0.00 0.00 55 1009.4
20190719215759 94 239 0.0 0.0 0.00 0.00 0.00 54 1009.4
20190719215255 94 265 0.0 1.0 0.00 0.00 0.00 55 1009.5
20190719214756 95 275 0.0 1.0 0.00 0.00 0.00 55 1009.5
20190719214253 94 287 0.0 1.0 0.00 0.00 0.00 54 1009.7
20190719213754 94 303 0.0 4.0 0.00 0.00 0.00 54 1009.7
20190719213256 95 275 0.0 7.0 0.00 0.00 0.00 55 1009.7
20190719212754 94 271 1.0 7.0 0.00 0.00 0.00 55 1009.7
20190719212255 94 240 0.0 6.0 0.00 0.00 0.00 55 1009.7
20190719211755 94 262 0.0 3.0 0.00 0.00 0.00 56 1009.8
20190719211255 94 273 0.0 1.0 0.00 0.00 0.00 54 1009.8
20190719210754 94 263 1.0 7.0 0.00 0.00 0.00 54 1009.8
20190719210255 95 279 1.0 7.0 0.00 0.00 0.00 54 1009.9
20190719205751 94 181 0.0 4.0 0.00 0.00 0.00 53 1010.1
20190719205253 95 225 0.0 1.0 0.00 0.00 0.00 55 1010.1
20190719204752 94 236 0.0 6.0 0.00 0.00 0.00 54 1010.2
20190719204251 94 276 1.0 8.0 0.00 0.00 0.00 54 1010.2
20190719203750 94 17 1.0 8.0 0.00 0.00 0.00 55 1010.2
20190719203250 94 284 0.0 2.0 0.00 0.00 0.00 55 1010.3
20190719202751 94 328 0.0 3.0 0.00 0.00 0.00 55 1010.3
20190719202249 94 306 0.0 5.0 0.00 0.00 0.00 54 1010.3
20190719201751 95 251 0.0 5.0 0.00 0.00 0.00 52 1010.3
20190719201250 94 242 0.0 5.0 0.00 0.00 0.00 56 1010.3
20190719200747 94 294 0.0 0.0 0.00 0.00 0.00 54 1010.3
20190719200249 95 278 0.0 1.0 0.00 0.00 0.00 57 1010.4
20190719195748 94 304 0.0 1.0 0.00 0.00 0.00 55 1010.4
20190719195247 93 273 0.0 4.0 0.00 0.00 0.00 57 1010.4
20190719194745 93 252 0.0 8.0 0.00 0.00 0.00 57 1010.5
20190719194246 94 295 0.0 8.0 0.00 0.00 0.00 56 1010.5
20190719193746 94 208 0.0 1.0 0.00 0.00 0.00 55 1010.6
20190719193246 94 302 0.0 4.0 0.00 0.00 0.00 55 1010.6
20190719192745 94 296 0.0 4.0 0.00 0.00 0.00 55 1010.6
20190719192248 96 274 0.0 1.0 0.00 0.00 0.00 52 1010.7
20190719191747 95 248 0.0 1.0 0.00 0.00 0.00 54 1010.7
20190719191244 95 187 0.0 1.0 0.00 0.00 0.00 55 1010.7
20190719190745 95 236 0.0 3.0 0.00 0.00 0.00 55 1010.7
20190719190241 95 298 0.0 3.0 0.00 0.00 0.00 56 1010.7
20190719185743 96 117 0.0 1.0 0.00 0.00 0.00 56 1010.7
20190719185243 94 236 0.0 8.0 0.00 0.00 0.00 56 1010.7
20190719184743 94 286 0.0 8.0 0.00 0.00 0.00 59 1010.6
20190719184243 94 250 0.0 7.0 0.00 0.00 0.00 59 1010.7
20190719183743 94 253 0.0 7.0 0.00 0.00 0.00 59 1010.7
20190719183241 94 248 0.0 1.0 0.00 0.00 0.00 58 1010.7
20190719182737 94 261 0.0 4.0 0.00 0.00 0.00 57 1010.7
20190719182238 95 234 0.0 4.0 0.00 0.00 0.00 56 1010.7
20190719181738 94 86 1.0 6.0 0.00 0.00 0.00 58 1010.9
20190719181236 94 301 1.0 8.0 0.00 0.00 0.00 60 1011.0
20190719180737 94 227 1.0 8.0 0.00 0.00 0.00 58 1010.9
20190719180237 94 306 0.0 1.0 0.00 0.00 0.00 60 1011.1
20190719175737 94 238 0.0 1.0 0.00 0.00 0.00 60 1011.1
20190719175237 94 269 0.0 8.0 0.00 0.00 0.00 61 1011.2
20190719174736 93 315 0.0 8.0 0.00 0.00 0.00 59 1011.3
20190719174234 93 213 0.0 1.0 0.00 0.00 0.00 62 1011.3
20190719173732 94 209 0.0 1.0 0.00 0.00 0.00 59 1011.4
20190719173232 94 286 0.0 1.0 0.00 0.00 0.00 60 1011.5
20190719172732 93 81 0.0 1.0 0.00 0.00 0.00 61 1011.6
20190719172231 93 0 0.0 2.0 0.00 0.00 0.00 62 1011.6
20190719171733 92 229 0.0 3.0 0.00 0.00 0.00 61 1011.6
20190719171233 92 245 0.0 3.0 0.00 0.00 0.00 62 1011.7
20190719170729 92 288 0.0 0.0 0.00 0.00 0.00 62 1011.7
20190719170229 91 317 0.0 1.0 0.00 0.00 0.00 63 1011.9
20190719165728 92 345 0.0 1.0 0.00 0.00 0.00 61 1011.8
20190719165228 93 212 0.0 0.0 0.00 0.00 0.00 61 1011.8
20190719164727 92 292 0.0 3.0 0.00 0.00 0.00 61 1011.8
20190719164227 91 332 0.0 3.0 0.00 0.00 0.00 62 1011.9
20190719163728 93 305 0.0 8.0 0.00 0.00 0.00 61 1011.9
20190719163224 92 205 0.0 8.0 0.00 0.00 0.00 64 1011.9
20190719162724 91 331 0.0 1.0 0.00 0.00 0.00 64 1011.9
20190719162224 92 54 0.0 1.0 0.00 0.00 0.00 62 1011.8
20190719161723 92 321 0.0 0.0 0.00 0.00 0.00 63 1011.9
20190719161224 91 122 0.0 7.0 0.00 0.00 0.00 63 1012.0
20190719160724 92 317 0.0 7.0 0.00 0.00 0.00 63 1011.9
20190719160223 91 332 0.0 3.0 0.00 0.00 0.00 63 1012.0
20190719155722 92 244 0.0 4.0 0.00 0.00 0.00 63 1012.0
20190719155221 91 329 0.0 5.0 0.00 0.00 0.00 64 1012.0
20190719154719 90 292 0.0 7.0 0.00 0.00 0.00 63 1012.0
20190719154219 92 269 0.0 7.0 0.00 0.00 0.00 62 1012.0
20190719153717 91 263 0.0 6.0 0.00 0.00 0.00 63 1012.0
20190719153217 91 87 0.0 3.0 0.00 0.00 0.00 61 1012.0
20190719152719 92 13 0.0 4.0 0.00 0.00 0.00 63 1011.9
20190719152214 91 310 0.0 4.0 0.00 0.00 0.00 64 1011.9
20190719151718 91 240 0.0 4.0 0.00 0.00 0.00 63 1012.0
20190719151217 91 190 0.0 3.0 0.00 0.00 0.00 62 1011.9
20190719150719 91 355 0.0 2.0 0.00 0.00 0.00 63 1011.9
20190719150217 90 355 0.0 3.0 0.00 0.00 0.00 64 1011.9
20190719145716 91 215 0.0 3.0 0.00 0.00 0.00 63 1011.9
20190719145215 91 74 0.0 0.0 0.00 0.00 0.00 65 1011.9
20190719144716 90 296 0.0 0.0 0.00 0.00 0.00 65 1011.9
20190719144214 90 271 0.0 3.0 0.00 0.00 0.00 65 1011.9
20190719143714 90 283 0.0 3.0 0.00 0.00 0.00 65 1011.8
20190719143215 90 130 0.0 3.0 0.00 0.00 0.00 66 1011.9
20190719142713 90 274 0.0 1.0 0.00 0.00 0.00 65 1011.8
20190719142213 90 75 0.0 0.0 0.00 0.00 0.00 66 1011.8
20190719141713 88 242 0.0 0.0 0.00 0.00 0.00 66 1011.8
20190719141214 89 202 0.0 0.0 0.00 0.00 0.00 68 1011.8
20190719140712 88 15 0.0 6.0 0.00 0.00 0.00 68 1011.8
20190719140213 88 279 0.0 6.0 0.00 0.00 0.00 69 1011.8
20190719135712 87 250 0.0 4.0 0.00 0.00 0.00 69 1011.8
20190719135211 87 324 0.0 4.0 0.00 0.00 0.00 69 1011.8
20190719134712 87 295 0.0 1.0 0.00 0.00 0.00 69 1011.7
20190719134212 87 343 0.0 0.0 0.00 0.00 0.00 69 1011.7
20190719133711 87 250 0.0 1.0 0.00 0.00 0.00 71 1011.7
20190719133212 87 334 0.0 1.0 0.00 0.00 0.00 71 1011.7
20190719132711 87 159 0.0 1.0 0.00 0.00 0.00 71 1011.6
20190719132212 86 15 0.0 3.0 0.00 0.00 0.00 73 1011.7
20190719131712 85 98 0.0 5.0 0.00 0.00 0.00 74 1011.7
20190719131212 85 234 0.0 5.0 0.00 0.00 0.00 74 1011.6
20190719130712 84 327 0.0 1.0 0.00 0.00 0.00 75 1011.6
20190719130211 84 319 0.0 1.0 0.00 0.00 0.00 74 1011.5
20190719125710 85 88 0.0 0.0 0.00 0.00 0.00 74 1011.5
20190719125211 85 252 0.0 0.0 0.00 0.00 0.00 74 1011.4
20190719124712 84 273 0.0 0.0 0.00 0.00 0.00 75 1011.4
20190719124211 83 201 0.0 3.0 0.00 0.00 0.00 76 1011.5
20190719123711 83 154 0.0 3.0 0.00 0.00 0.00 77 1011.5
20190719123210 82 207 0.0 3.0 0.00 0.00 0.00 78 1011.4
20190719122711 82 141 0.0 3.0 0.00 0.00 0.00 77 1011.3
20190719122210 82 5 0.0 3.0 0.00 0.00 0.00 78 1011.3
20190719121711 82 174 0.0 4.0 0.00 0.00 0.00 78 1011.3
20190719121210 81 302 0.0 4.0 0.00 0.00 0.00 78 1011.2
20190719120707 81 312 0.0 1.0 0.00 0.00 0.00 79 1011.2
20190719120206 80 300 0.0 1.0 0.00 0.00 0.00 79 1011.1
20190719115705 81 296 0.0 4.0 0.00 0.00 0.00 79 1011.1
20190719115206 80 297 0.0 4.0 0.00 0.00 0.00 80 1011.2
20190719114707 80 323 0.0 1.0 0.00 0.00 0.00 80 1011.1
20190719114207 80 261 0.0 0.0 0.00 0.00 0.00 80 1011.1
20190719113706 79 294 0.0 0.0 0.00 0.00 0.00 81 1011.1
20190719113204 79 259 0.0 0.0 0.00 0.00 0.00 82 1011.0
20190719112703 78 328 0.0 0.0 0.00 0.00 0.00 83 1011.0
20190719112203 78 325 0.0 0.0 0.00 0.00 0.00 84 1011.1
20190719111701 77 257 0.0 0.0 0.00 0.00 0.00 85 1011.1
20190719111201 77 291 0.0 0.0 0.00 0.00 0.00 86 1011.1
20190719110700 76 291 0.0 0.0 0.00 0.00 0.00 87 1011.1
20190719110159 76 291 0.0 0.0 0.00 0.00 0.00 87 1011.0
20190719105659 76 291 0.0 0.0 0.00 0.00 0.00 88 1011.0
20190719105200 76 291 0.0 2.0 0.00 0.00 0.00 88 1011.0
20190719104659 75 282 0.0 2.0 0.00 0.00 0.00 89 1010.9
20190719104159 75 245 0.0 0.0 0.00 0.00 0.00 89 1010.8
20190719103657 75 245 0.0 0.0 0.00 0.00 0.00 89 1010.7
20190719103158 75 245 0.0 0.0 0.00 0.00 0.00 89 1010.7
20190719102654 75 245 0.0 0.0 0.00 0.00 0.00 89 1010.7
20190719102156 75 245 0.0 0.0 0.00 0.00 0.00 89 1010.7
20190719101652 75 245 0.0 0.0 0.00 0.00 0.00 89 1010.6
20190719101152 75 245 0.0 0.0 0.00 0.00 0.00 89 1010.6
20190719100654 75 245 0.0 0.0 0.00 0.00 0.00 89 1010.7
20190719100153 75 245 0.0 0.0 0.00 0.00 0.00 89 1010.6
20190719095650 75 245 0.0 0.0 0.00 0.00 0.00 89 1010.6
20190719095151 75 245 0.0 0.0 0.00 0.00 0.00 89 1010.5